Year,Month,Day,Hour,Minute,Value (Times are PST for temperature in C)
2017,05,14,00,00,7.90
2017,05,14,00,01,7.80
2017,05,14,00,02,7.90
2017,05,14,00,03,7.80
2017,05,14,00,04,7.80
2017,05,14,00,05,7.80
2017,05,14,00,06,7.80
2017,05,14,00,07,7.80
2017,05,14,00,08,7.80
2017,05,14,00,09,7.90
2017,05,14,00,10,7.90
2017,05,14,00,11,7.80
2017,05,14,00,12,7.80
2017,05,14,00,13,7.80
2017,05,14,00,14,7.70
2017,05,14,00,15,7.70
2017,05,14,00,16,7.70
2017,05,14,00,17,7.60
2017,05,14,00,18,7.60
2017,05,14,00,19,7.60
2017,05,14,00,20,7.60
2017,05,14,00,21,7.50
2017,05,14,00,22,7.50
2017,05,14,00,23,7.40
2017,05,14,00,24,7.40
2017,05,14,00,25,7.30
2017,05,14,00,26,7.30
2017,05,14,00,27,7.20
2017,05,14,00,28,7.20
2017,05,14,00,29,7.20
2017,05,14,00,30,7.20
2017,05,14,00,31,7.10
2017,05,14,00,32,7.10
2017,05,14,00,33,7.10
2017,05,14,00,34,7.10
2017,05,14,00,35,7.00
2017,05,14,00,36,7.00
2017,05,14,00,37,7.00
2017,05,14,00,38,7.00
2017,05,14,00,39,6.90
2017,05,14,00,40,6.90
2017,05,14,00,41,6.90
2017,05,14,00,42,6.80
2017,05,14,00,43,6.80
2017,05,14,00,44,6.80
2017,05,14,00,45,6.80
2017,05,14,00,46,6.80
2017,05,14,00,47,6.80
2017,05,14,00,48,6.70
2017,05,14,00,49,6.70
2017,05,14,00,50,6.70
2017,05,14,00,51,6.70
2017,05,14,00,52,6.70
2017,05,14,00,53,6.70
2017,05,14,00,54,6.60
2017,05,14,00,55,6.60
2017,05,14,00,56,6.60
2017,05,14,00,57,6.60
2017,05,14,00,58,6.60
2017,05,14,00,59,6.60
2017,05,14,01,00,6.60
2017,05,14,01,01,6.50
2017,05,14,01,02,6.50
2017,05,14,01,03,6.50
2017,05,14,01,04,6.50
2017,05,14,01,05,6.50
2017,05,14,01,06,6.40
2017,05,14,01,07,6.40
2017,05,14,01,08,6.40
2017,05,14,01,09,6.40
2017,05,14,01,10,6.40
2017,05,14,01,11,6.30
2017,05,14,01,12,6.30
2017,05,14,01,13,6.30
2017,05,14,01,14,6.30
2017,05,14,01,15,6.30
2017,05,14,01,16,6.20
2017,05,14,01,17,6.20
2017,05,14,01,18,6.20
2017,05,14,01,19,6.20
2017,05,14,01,20,6.20
2017,05,14,01,21,6.20
2017,05,14,01,22,6.20
2017,05,14,01,23,6.20
2017,05,14,01,24,6.20
2017,05,14,01,25,6.20
2017,05,14,01,26,6.20
2017,05,14,01,27,6.10
2017,05,14,01,28,6.10
2017,05,14,01,29,6.10
2017,05,14,01,30,6.10
2017,05,14,01,31,6.10
2017,05,14,01,32,6.10
2017,05,14,01,33,6.10
2017,05,14,01,34,6.10
2017,05,14,01,35,6.10
2017,05,14,01,36,6.10
2017,05,14,01,37,6.00
2017,05,14,01,38,6.00
2017,05,14,01,39,6.00
2017,05,14,01,40,5.90
2017,05,14,01,41,5.90
2017,05,14,01,42,5.90
2017,05,14,01,43,5.90
2017,05,14,01,44,5.90
2017,05,14,01,45,5.90
2017,05,14,01,46,5.90
2017,05,14,01,47,5.90
2017,05,14,01,48,5.90
2017,05,14,01,49,5.90
2017,05,14,01,50,5.90
2017,05,14,01,51,5.80
2017,05,14,01,52,5.80
2017,05,14,01,53,5.80
2017,05,14,01,54,5.80
2017,05,14,01,55,5.80
2017,05,14,01,56,5.80
2017,05,14,01,57,5.80
2017,05,14,01,58,5.80
2017,05,14,01,59,5.80
2017,05,14,02,00,5.80
2017,05,14,02,01,5.80
2017,05,14,02,02,5.80
2017,05,14,02,03,5.80
2017,05,14,02,04,5.80
2017,05,14,02,05,5.80
2017,05,14,02,06,5.80
2017,05,14,02,07,5.80
2017,05,14,02,08,5.80
2017,05,14,02,09,5.80
2017,05,14,02,10,5.70
2017,05,14,02,11,5.70
2017,05,14,02,12,5.70
2017,05,14,02,13,5.70
2017,05,14,02,14,5.70
2017,05,14,02,15,5.70
2017,05,14,02,16,5.70
2017,05,14,02,17,5.60
2017,05,14,02,18,5.60
2017,05,14,02,19,5.60
2017,05,14,02,20,5.60
2017,05,14,02,21,5.60
2017,05,14,02,22,5.60
2017,05,14,02,23,5.60
2017,05,14,02,24,5.60
2017,05,14,02,25,5.60
2017,05,14,02,26,5.60
2017,05,14,02,27,5.60
2017,05,14,02,28,5.60
2017,05,14,02,29,5.60
2017,05,14,02,30,5.60
2017,05,14,02,31,5.60
2017,05,14,02,32,5.60
2017,05,14,02,33,5.60
2017,05,14,02,34,5.60
2017,05,14,02,35,5.60
2017,05,14,02,36,5.60
2017,05,14,02,37,5.50
2017,05,14,02,38,5.50
2017,05,14,02,39,5.50
2017,05,14,02,40,5.50
2017,05,14,02,41,5.50
2017,05,14,02,42,5.50
2017,05,14,02,43,5.50
2017,05,14,02,44,5.40
2017,05,14,02,45,5.40
2017,05,14,02,46,5.40
2017,05,14,02,47,5.40
2017,05,14,02,48,5.40
2017,05,14,02,49,5.40
2017,05,14,02,50,5.40
2017,05,14,02,51,5.40
2017,05,14,02,52,5.40
2017,05,14,02,53,5.40
2017,05,14,02,54,5.40
2017,05,14,02,55,5.40
2017,05,14,02,56,5.40
2017,05,14,02,57,5.30
2017,05,14,02,58,5.30
2017,05,14,02,59,5.30
2017,05,14,03,00,5.30
2017,05,14,03,01,5.20
2017,05,14,03,02,5.20
2017,05,14,03,03,5.20
2017,05,14,03,04,5.10
2017,05,14,03,05,5.10
2017,05,14,03,06,5.10
2017,05,14,03,07,5.10
2017,05,14,03,08,5.10
2017,05,14,03,09,5.10
2017,05,14,03,10,5.10
2017,05,14,03,11,5.10
2017,05,14,03,12,5.10
2017,05,14,03,13,5.10
2017,05,14,03,14,5.10
2017,05,14,03,15,5.10
2017,05,14,03,16,5.00
2017,05,14,03,17,5.00
2017,05,14,03,18,5.00
2017,05,14,03,19,5.00
2017,05,14,03,20,4.90
2017,05,14,03,21,4.90
2017,05,14,03,22,4.90
2017,05,14,03,23,4.90
2017,05,14,03,24,4.90
2017,05,14,03,25,4.90
2017,05,14,03,26,4.80
2017,05,14,03,27,4.80
2017,05,14,03,28,4.80
2017,05,14,03,29,4.80
2017,05,14,03,30,4.80
2017,05,14,03,31,4.80
2017,05,14,03,32,4.80
2017,05,14,03,33,4.80
2017,05,14,03,34,4.80
2017,05,14,03,35,4.80
2017,05,14,03,36,4.80
2017,05,14,03,37,4.80
2017,05,14,03,38,4.80
2017,05,14,03,39,4.80
2017,05,14,03,40,4.80
2017,05,14,03,41,4.80
2017,05,14,03,42,4.80
2017,05,14,03,43,4.80
2017,05,14,03,44,4.80
2017,05,14,03,45,4.80
2017,05,14,03,46,4.80
2017,05,14,03,47,4.80
2017,05,14,03,48,4.80
2017,05,14,03,49,4.80
2017,05,14,03,50,4.80
2017,05,14,03,51,4.80
2017,05,14,03,52,4.80
2017,05,14,03,53,4.80
2017,05,14,03,54,4.80
2017,05,14,03,55,4.80
2017,05,14,03,56,4.80
2017,05,14,03,57,4.80
2017,05,14,03,58,4.80
2017,05,14,03,59,4.80
2017,05,14,04,00,4.80
2017,05,14,04,01,4.80
2017,05,14,04,02,4.70
2017,05,14,04,03,4.80
2017,05,14,04,04,4.80
2017,05,14,04,05,4.80
2017,05,14,04,06,4.80
2017,05,14,04,07,4.80
2017,05,14,04,08,4.80
2017,05,14,04,09,4.80
2017,05,14,04,10,4.80
2017,05,14,04,11,4.80
2017,05,14,04,12,4.80
2017,05,14,04,13,4.80
2017,05,14,04,14,4.80
2017,05,14,04,15,4.80
2017,05,14,04,16,4.80
2017,05,14,04,17,4.90
2017,05,14,04,18,4.90
2017,05,14,04,19,4.90
2017,05,14,04,20,4.90
2017,05,14,04,21,4.90
2017,05,14,04,22,4.90
2017,05,14,04,23,4.90
2017,05,14,04,24,5.00
2017,05,14,04,25,5.00
2017,05,14,04,26,5.00
2017,05,14,04,27,5.00
2017,05,14,04,28,5.10
2017,05,14,04,29,5.10
2017,05,14,04,30,5.10
2017,05,14,04,31,5.10
2017,05,14,04,32,5.10
2017,05,14,04,33,5.10
2017,05,14,04,34,5.10
2017,05,14,04,35,5.10
2017,05,14,04,36,5.10
2017,05,14,04,37,5.10
2017,05,14,04,38,5.20
2017,05,14,04,39,5.20
2017,05,14,04,40,5.20
2017,05,14,04,41,5.20
2017,05,14,04,42,5.20
2017,05,14,04,43,5.20
2017,05,14,04,44,5.20
2017,05,14,04,45,5.20
2017,05,14,04,46,5.20
2017,05,14,04,47,5.30
2017,05,14,04,48,5.30
2017,05,14,04,49,5.30
2017,05,14,04,50,5.30
2017,05,14,04,51,5.30
2017,05,14,04,52,5.30
2017,05,14,04,53,5.30
2017,05,14,04,54,5.30
2017,05,14,04,55,5.30
2017,05,14,04,56,5.30
2017,05,14,04,57,5.30
2017,05,14,04,58,5.30
2017,05,14,04,59,5.30
2017,05,14,05,00,5.30
2017,05,14,05,01,5.30
2017,05,14,05,02,5.30
2017,05,14,05,03,5.30
2017,05,14,05,04,5.40
2017,05,14,05,05,5.40
2017,05,14,05,06,5.40
2017,05,14,05,07,5.40
2017,05,14,05,08,5.40
2017,05,14,05,09,5.40
2017,05,14,05,10,5.40
2017,05,14,05,11,5.50
2017,05,14,05,12,5.50
2017,05,14,05,13,5.50
2017,05,14,05,14,5.60
2017,05,14,05,15,5.60
2017,05,14,05,16,5.60
2017,05,14,05,17,5.60
2017,05,14,05,18,5.60
2017,05,14,05,19,5.60
2017,05,14,05,20,5.60
2017,05,14,05,21,5.60
2017,05,14,05,22,5.60
2017,05,14,05,23,5.60
2017,05,14,05,24,5.60
2017,05,14,05,25,5.70
2017,05,14,05,26,5.70
2017,05,14,05,27,5.70
2017,05,14,05,28,5.70
2017,05,14,05,29,5.70
2017,05,14,05,30,5.70
2017,05,14,05,31,5.70
2017,05,14,05,32,5.70
2017,05,14,05,33,5.70
2017,05,14,05,34,5.70
2017,05,14,05,35,5.70
2017,05,14,05,36,5.70
2017,05,14,05,37,5.70
2017,05,14,05,38,5.70
2017,05,14,05,39,5.70
2017,05,14,05,40,5.70
2017,05,14,05,41,5.70
2017,05,14,05,42,5.70
2017,05,14,05,43,5.70
2017,05,14,05,44,5.70
2017,05,14,05,45,5.70
2017,05,14,05,46,5.70
2017,05,14,05,47,5.70
2017,05,14,05,48,5.70
2017,05,14,05,49,5.70
2017,05,14,05,50,5.70
2017,05,14,05,51,5.70
2017,05,14,05,52,5.70
2017,05,14,05,53,5.70
2017,05,14,05,54,5.70
2017,05,14,05,55,5.70
2017,05,14,05,56,5.70
2017,05,14,05,57,5.70
2017,05,14,05,58,5.70
2017,05,14,05,59,5.70
2017,05,14,06,00,5.70
2017,05,14,06,01,5.70
2017,05,14,06,02,5.70
2017,05,14,06,03,5.70
2017,05,14,06,04,5.70
2017,05,14,06,05,5.70
2017,05,14,06,06,5.70
2017,05,14,06,07,5.70
2017,05,14,06,08,5.70
2017,05,14,06,09,5.70
2017,05,14,06,10,5.80
2017,05,14,06,11,5.80
2017,05,14,06,12,5.80
2017,05,14,06,13,5.80
2017,05,14,06,14,5.80
2017,05,14,06,15,5.80
2017,05,14,06,16,5.80
2017,05,14,06,17,5.90
2017,05,14,06,18,5.90
2017,05,14,06,19,5.90
2017,05,14,06,20,5.90
2017,05,14,06,21,5.90
2017,05,14,06,22,5.90
2017,05,14,06,23,5.90
2017,05,14,06,24,5.90
2017,05,14,06,25,5.90
2017,05,14,06,26,6.00
2017,05,14,06,27,6.00
2017,05,14,06,28,6.00
2017,05,14,06,29,6.00
2017,05,14,06,30,6.00
2017,05,14,06,31,6.00
2017,05,14,06,32,6.00
2017,05,14,06,33,6.00
2017,05,14,06,34,6.10
2017,05,14,06,35,6.10
2017,05,14,06,36,6.10
2017,05,14,06,37,6.10
2017,05,14,06,38,6.10
2017,05,14,06,39,6.20
2017,05,14,06,40,6.20
2017,05,14,06,41,6.20
2017,05,14,06,42,6.20
2017,05,14,06,43,6.20
2017,05,14,06,44,6.30
2017,05,14,06,45,6.30
2017,05,14,06,46,6.30
2017,05,14,06,47,6.30
2017,05,14,06,48,6.30
2017,05,14,06,49,6.30
2017,05,14,06,50,6.30
2017,05,14,06,51,6.30
2017,05,14,06,52,6.40
2017,05,14,06,53,6.40
2017,05,14,06,54,6.40
2017,05,14,06,55,6.40
2017,05,14,06,56,6.40
2017,05,14,06,57,6.40
2017,05,14,06,58,6.50
2017,05,14,06,59,6.50
2017,05,14,07,00,6.50
2017,05,14,07,01,6.50
2017,05,14,07,02,6.60
2017,05,14,07,03,6.60
2017,05,14,07,04,6.60
2017,05,14,07,05,6.60
2017,05,14,07,06,6.60
2017,05,14,07,07,6.60
2017,05,14,07,08,6.70
2017,05,14,07,09,6.70
2017,05,14,07,10,6.70
2017,05,14,07,11,6.70
2017,05,14,07,12,6.70
2017,05,14,07,13,6.70
2017,05,14,07,14,6.80
2017,05,14,07,15,6.80
2017,05,14,07,16,6.80
2017,05,14,07,17,6.80
2017,05,14,07,18,6.80
2017,05,14,07,19,6.80
2017,05,14,07,20,6.90
2017,05,14,07,21,6.90
2017,05,14,07,22,6.90
2017,05,14,07,23,7.00
2017,05,14,07,24,7.00
2017,05,14,07,25,7.10
2017,05,14,07,26,7.10
2017,05,14,07,27,7.10
2017,05,14,07,28,7.20
2017,05,14,07,29,7.20
2017,05,14,07,30,7.20
2017,05,14,07,31,7.30
2017,05,14,07,32,7.30
2017,05,14,07,33,7.30
2017,05,14,07,34,7.40
2017,05,14,07,35,7.40
2017,05,14,07,36,7.50
2017,05,14,07,37,7.50
2017,05,14,07,38,7.60
2017,05,14,07,39,7.60
2017,05,14,07,40,7.70
2017,05,14,07,41,7.70
2017,05,14,07,42,7.80
2017,05,14,07,43,7.80
2017,05,14,07,44,7.90
2017,05,14,07,45,7.90
2017,05,14,07,46,8.00
2017,05,14,07,47,8.00
2017,05,14,07,48,8.10
2017,05,14,07,49,8.10
2017,05,14,07,50,8.10
2017,05,14,07,51,8.20
2017,05,14,07,52,8.20
2017,05,14,07,53,8.30
2017,05,14,07,54,8.30
2017,05,14,07,55,8.40
2017,05,14,07,56,8.40
2017,05,14,07,57,8.50
2017,05,14,07,58,8.60
2017,05,14,07,59,8.70
2017,05,14,08,00,8.70
2017,05,14,08,01,8.80
2017,05,14,08,02,8.80
2017,05,14,08,03,8.90
2017,05,14,08,04,8.90
2017,05,14,08,05,8.90
2017,05,14,08,06,9.00
2017,05,14,08,07,9.10
2017,05,14,08,08,9.10
2017,05,14,08,09,9.10
2017,05,14,08,10,9.20
2017,05,14,08,11,9.20
2017,05,14,08,12,9.20
2017,05,14,08,13,9.30
2017,05,14,08,14,9.30
2017,05,14,08,15,9.40
2017,05,14,08,16,9.40
2017,05,14,08,17,9.40
2017,05,14,08,18,9.50
2017,05,14,08,19,9.60
2017,05,14,08,20,9.60
2017,05,14,08,21,9.60
2017,05,14,08,22,9.70
2017,05,14,08,23,9.70
2017,05,14,08,24,9.80
2017,05,14,08,25,9.80
2017,05,14,08,26,9.90
2017,05,14,08,27,9.90
2017,05,14,08,28,10.00
2017,05,14,08,29,10.00
2017,05,14,08,30,10.00
2017,05,14,08,31,10.10
2017,05,14,08,32,10.10
2017,05,14,08,33,10.10
2017,05,14,08,34,10.20
2017,05,14,08,35,10.20
2017,05,14,08,36,10.20
2017,05,14,08,37,10.30
2017,05,14,08,38,10.40
2017,05,14,08,39,10.40
2017,05,14,08,40,10.50
2017,05,14,08,41,10.60
2017,05,14,08,42,10.60
2017,05,14,08,43,10.60
2017,05,14,08,44,10.60
2017,05,14,08,45,10.60
2017,05,14,08,46,10.70
2017,05,14,08,47,10.70
2017,05,14,08,48,10.70
2017,05,14,08,49,10.60
2017,05,14,08,50,10.60
2017,05,14,08,51,10.50
2017,05,14,08,52,10.40
2017,05,14,08,53,10.40
2017,05,14,08,54,10.40
2017,05,14,08,55,10.30
2017,05,14,08,56,10.30
2017,05,14,08,57,10.30
2017,05,14,08,58,10.30
2017,05,14,08,59,10.30
2017,05,14,09,00,10.30
2017,05,14,09,01,10.40
2017,05,14,09,02,10.40
2017,05,14,09,03,10.40
2017,05,14,09,04,10.50
2017,05,14,09,05,10.60
2017,05,14,09,06,10.60
2017,05,14,09,07,10.60
2017,05,14,09,08,10.70
2017,05,14,09,09,10.70
2017,05,14,09,10,10.80
2017,05,14,09,11,10.80
2017,05,14,09,12,10.80
2017,05,14,09,13,10.80
2017,05,14,09,14,10.80
2017,05,14,09,15,10.80
2017,05,14,09,16,10.90
2017,05,14,09,17,10.90
2017,05,14,09,18,10.90
2017,05,14,09,19,11.00
2017,05,14,09,20,11.00
2017,05,14,09,21,11.10
2017,05,14,09,22,11.10
2017,05,14,09,23,11.10
2017,05,14,09,24,11.10
2017,05,14,09,25,11.20
2017,05,14,09,26,11.20
2017,05,14,09,27,11.20
2017,05,14,09,28,11.20
2017,05,14,09,29,11.20
2017,05,14,09,30,11.20
2017,05,14,09,31,11.20
2017,05,14,09,32,11.10
2017,05,14,09,33,11.10
2017,05,14,09,34,11.10
2017,05,14,09,35,11.10
2017,05,14,09,36,11.00
2017,05,14,09,37,11.00
2017,05,14,09,38,10.90
2017,05,14,09,39,10.90
2017,05,14,09,40,10.90
2017,05,14,09,41,10.90
2017,05,14,09,42,10.80
2017,05,14,09,43,10.80
2017,05,14,09,44,10.80
2017,05,14,09,45,10.70
2017,05,14,09,46,10.70
2017,05,14,09,47,10.70
2017,05,14,09,48,10.70
2017,05,14,09,49,10.60
2017,05,14,09,50,10.60
2017,05,14,09,51,10.60
2017,05,14,09,52,10.60
2017,05,14,09,53,10.50
2017,05,14,09,54,10.50
2017,05,14,09,55,10.50
2017,05,14,09,56,10.50
2017,05,14,09,57,10.50
2017,05,14,09,58,10.50
2017,05,14,09,59,10.50
2017,05,14,10,00,10.50
2017,05,14,10,01,10.50
2017,05,14,10,02,10.50
2017,05,14,10,03,10.50
2017,05,14,10,04,10.50
2017,05,14,10,05,10.50
2017,05,14,10,06,10.50
2017,05,14,10,07,10.40
2017,05,14,10,08,10.40
2017,05,14,10,09,10.40
2017,05,14,10,10,10.40
2017,05,14,10,11,10.40
2017,05,14,10,12,10.40
2017,05,14,10,13,10.30
2017,05,14,10,14,10.30
2017,05,14,10,15,10.30
2017,05,14,10,16,10.30
2017,05,14,10,17,10.30
2017,05,14,10,18,10.30
2017,05,14,10,19,10.30
2017,05,14,10,20,10.30
2017,05,14,10,21,10.20
2017,05,14,10,22,10.20
2017,05,14,10,23,10.20
2017,05,14,10,24,10.20
2017,05,14,10,25,10.10
2017,05,14,10,26,10.10
2017,05,14,10,27,10.10
2017,05,14,10,28,10.00
2017,05,14,10,29,9.90
2017,05,14,10,30,9.90
2017,05,14,10,31,9.80
2017,05,14,10,32,9.80
2017,05,14,10,33,9.90
2017,05,14,10,34,9.90
2017,05,14,10,35,9.90
2017,05,14,10,36,9.90
2017,05,14,10,37,9.90
2017,05,14,10,38,9.90
2017,05,14,10,39,9.90
2017,05,14,10,40,9.90
2017,05,14,10,41,9.90
2017,05,14,10,42,10.00
2017,05,14,10,43,10.10
2017,05,14,10,44,10.10
2017,05,14,10,45,10.20
2017,05,14,10,46,10.30
2017,05,14,10,47,10.30
2017,05,14,10,48,10.40
2017,05,14,10,49,10.40
2017,05,14,10,50,10.40
2017,05,14,10,51,10.40
2017,05,14,10,52,10.40
2017,05,14,10,53,10.50
2017,05,14,10,54,10.50
2017,05,14,10,55,10.50
2017,05,14,10,56,10.60
2017,05,14,10,57,10.60
2017,05,14,10,58,10.70
2017,05,14,10,59,10.70
2017,05,14,11,00,10.70
2017,05,14,11,01,10.70
2017,05,14,11,02,10.80
2017,05,14,11,03,10.90
2017,05,14,11,04,10.90
2017,05,14,11,05,10.90
2017,05,14,11,06,10.90
2017,05,14,11,07,11.00
2017,05,14,11,08,11.00
2017,05,14,11,09,11.00
2017,05,14,11,10,11.10
2017,05,14,11,11,11.20
2017,05,14,11,12,11.30
2017,05,14,11,13,11.40
2017,05,14,11,14,11.40
2017,05,14,11,15,11.40
2017,05,14,11,16,11.40
2017,05,14,11,17,11.50
2017,05,14,11,18,11.50
2017,05,14,11,19,11.40
2017,05,14,11,20,11.50
2017,05,14,11,21,11.40
2017,05,14,11,22,11.40
2017,05,14,11,23,11.40
2017,05,14,11,24,11.50
2017,05,14,11,25,11.60
2017,05,14,11,26,11.60
2017,05,14,11,27,11.70
2017,05,14,11,28,11.70
2017,05,14,11,29,11.60
2017,05,14,11,30,11.70
2017,05,14,11,31,11.70
2017,05,14,11,32,11.70
2017,05,14,11,33,11.70
2017,05,14,11,34,11.70
2017,05,14,11,35,11.80
2017,05,14,11,36,11.80
2017,05,14,11,37,11.90
2017,05,14,11,38,11.80
2017,05,14,11,39,11.80
2017,05,14,11,40,11.80
2017,05,14,11,41,11.80
2017,05,14,11,42,11.80
2017,05,14,11,43,11.80
2017,05,14,11,44,11.80
2017,05,14,11,45,11.90
2017,05,14,11,46,11.90
2017,05,14,11,47,12.00
2017,05,14,11,48,12.00
2017,05,14,11,49,12.10
2017,05,14,11,50,12.10
2017,05,14,11,51,12.10
2017,05,14,11,52,12.10
2017,05,14,11,53,12.00
2017,05,14,11,54,11.90
2017,05,14,11,55,11.80
2017,05,14,11,56,11.80
2017,05,14,11,57,11.80
2017,05,14,11,58,11.70
2017,05,14,11,59,11.70
2017,05,14,12,00,11.70
2017,05,14,12,01,11.70
2017,05,14,12,02,11.70
2017,05,14,12,03,11.70
2017,05,14,12,04,11.70
2017,05,14,12,05,11.70
2017,05,14,12,06,11.70
2017,05,14,12,07,11.70
2017,05,14,12,08,11.70
2017,05,14,12,09,11.80
2017,05,14,12,10,11.90
2017,05,14,12,11,12.10
2017,05,14,12,12,12.20
2017,05,14,12,13,12.30
2017,05,14,12,14,12.30
2017,05,14,12,15,12.40
2017,05,14,12,16,12.50
2017,05,14,12,17,12.60
2017,05,14,12,18,12.70
2017,05,14,12,19,12.80
2017,05,14,12,20,12.80
2017,05,14,12,21,12.90
2017,05,14,12,22,12.80
2017,05,14,12,23,12.80
2017,05,14,12,24,12.80
2017,05,14,12,25,12.80
2017,05,14,12,26,12.80
2017,05,14,12,27,12.80
2017,05,14,12,28,12.80
2017,05,14,12,29,12.80
2017,05,14,12,30,12.80
2017,05,14,12,31,12.70
2017,05,14,12,32,12.60
2017,05,14,12,33,12.40
2017,05,14,12,34,12.20
2017,05,14,12,35,12.10
2017,05,14,12,36,12.20
2017,05,14,12,37,12.40
2017,05,14,12,38,12.50
2017,05,14,12,39,12.70
2017,05,14,12,40,12.90
2017,05,14,12,41,13.20
2017,05,14,12,42,13.30
2017,05,14,12,43,13.40
2017,05,14,12,44,13.50
2017,05,14,12,45,13.50
2017,05,14,12,46,13.60
2017,05,14,12,47,13.70
2017,05,14,12,48,13.70
2017,05,14,12,49,13.60
2017,05,14,12,50,13.50
2017,05,14,12,51,13.30
2017,05,14,12,52,13.30
2017,05,14,12,53,13.30
2017,05,14,12,54,13.30
2017,05,14,12,55,13.40
2017,05,14,12,56,13.50
2017,05,14,12,57,13.60
2017,05,14,12,58,13.50
2017,05,14,12,59,13.40
2017,05,14,13,00,13.40
2017,05,14,13,01,13.50
2017,05,14,13,02,13.50
2017,05,14,13,03,13.50
2017,05,14,13,04,13.50
2017,05,14,13,05,13.50
2017,05,14,13,06,13.60
2017,05,14,13,07,13.60
2017,05,14,13,08,13.70
2017,05,14,13,09,13.80
2017,05,14,13,10,13.90
2017,05,14,13,11,13.80
2017,05,14,13,12,13.80
2017,05,14,13,13,13.80
2017,05,14,13,14,13.80
2017,05,14,13,15,13.90
2017,05,14,13,16,13.90
2017,05,14,13,17,13.90
2017,05,14,13,18,13.80
2017,05,14,13,19,13.80
2017,05,14,13,20,13.70
2017,05,14,13,21,13.70
2017,05,14,13,22,13.70
2017,05,14,13,23,13.70
2017,05,14,13,24,13.70
2017,05,14,13,25,13.70
2017,05,14,13,26,13.70
2017,05,14,13,27,13.60
2017,05,14,13,28,13.60
2017,05,14,13,29,13.70
2017,05,14,13,30,13.70
2017,05,14,13,31,13.70
2017,05,14,13,32,13.70
2017,05,14,13,33,13.70
2017,05,14,13,34,13.70
2017,05,14,13,35,13.80
2017,05,14,13,36,13.80
2017,05,14,13,37,13.80
2017,05,14,13,38,13.70
2017,05,14,13,39,13.70
2017,05,14,13,40,13.60
2017,05,14,13,41,13.50
2017,05,14,13,42,13.50
2017,05,14,13,43,13.50
2017,05,14,13,44,13.60
2017,05,14,13,45,13.60
2017,05,14,13,46,13.60
2017,05,14,13,47,13.60
2017,05,14,13,48,13.60
2017,05,14,13,49,13.60
2017,05,14,13,50,13.50
2017,05,14,13,51,13.50
2017,05,14,13,52,13.60
2017,05,14,13,53,13.60
2017,05,14,13,54,13.60
2017,05,14,13,55,13.40
2017,05,14,13,56,13.40
2017,05,14,13,57,13.40
2017,05,14,13,58,13.40
2017,05,14,13,59,13.50
2017,05,14,14,00,13.60
2017,05,14,14,01,13.60
2017,05,14,14,02,13.70
2017,05,14,14,03,13.80
2017,05,14,14,04,13.80
2017,05,14,14,05,13.80
2017,05,14,14,06,13.80
2017,05,14,14,07,13.90
2017,05,14,14,08,14.00
2017,05,14,14,09,14.00
2017,05,14,14,10,14.10
2017,05,14,14,11,14.00
2017,05,14,14,12,14.00
2017,05,14,14,13,14.00
2017,05,14,14,14,13.90
2017,05,14,14,15,13.90
2017,05,14,14,16,13.90
2017,05,14,14,17,13.80
2017,05,14,14,18,13.80
2017,05,14,14,19,13.90
2017,05,14,14,20,13.90
2017,05,14,14,21,13.90
2017,05,14,14,22,14.00
2017,05,14,14,23,14.00
2017,05,14,14,24,14.00
2017,05,14,14,25,14.00
2017,05,14,14,26,14.00
2017,05,14,14,27,14.10
2017,05,14,14,28,14.20
2017,05,14,14,29,14.20
2017,05,14,14,30,14.20
2017,05,14,14,31,14.20
2017,05,14,14,32,14.20
2017,05,14,14,33,14.20
2017,05,14,14,34,14.20
2017,05,14,14,35,14.20
2017,05,14,14,36,14.20
2017,05,14,14,37,14.30
2017,05,14,14,38,14.30
2017,05,14,14,39,14.30
2017,05,14,14,40,14.30
2017,05,14,14,41,14.20
2017,05,14,14,42,14.20
2017,05,14,14,43,14.10
2017,05,14,14,44,14.10
2017,05,14,14,45,14.10
2017,05,14,14,46,14.10
2017,05,14,14,47,14.20
2017,05,14,14,48,14.20
2017,05,14,14,49,14.20
2017,05,14,14,50,14.20
2017,05,14,14,51,14.20
2017,05,14,14,52,14.20
2017,05,14,14,53,14.20
2017,05,14,14,54,14.20
2017,05,14,14,55,14.20
2017,05,14,14,56,14.20
2017,05,14,14,57,14.20
2017,05,14,14,58,14.20
2017,05,14,14,59,14.20
2017,05,14,15,00,14.20
2017,05,14,15,01,14.20
2017,05,14,15,02,14.30
2017,05,14,15,03,14.30
2017,05,14,15,04,14.30
2017,05,14,15,05,14.30
2017,05,14,15,06,14.30
2017,05,14,15,07,14.40
2017,05,14,15,08,14.50
2017,05,14,15,09,14.50
2017,05,14,15,10,14.60
2017,05,14,15,11,14.50
2017,05,14,15,12,14.40
2017,05,14,15,13,14.40
2017,05,14,15,14,14.40
2017,05,14,15,15,14.40
2017,05,14,15,16,14.40
2017,05,14,15,17,14.50
2017,05,14,15,18,14.60
2017,05,14,15,19,14.60
2017,05,14,15,20,14.60
2017,05,14,15,21,14.60
2017,05,14,15,22,14.60
2017,05,14,15,23,14.70
2017,05,14,15,24,14.70
2017,05,14,15,25,14.70
2017,05,14,15,26,14.70
2017,05,14,15,27,14.70
2017,05,14,15,28,14.70
2017,05,14,15,29,14.70
2017,05,14,15,30,14.70
2017,05,14,15,31,14.70
2017,05,14,15,32,14.70
2017,05,14,15,33,14.70
2017,05,14,15,34,14.80
2017,05,14,15,35,14.80
2017,05,14,15,36,14.80
2017,05,14,15,37,14.80
2017,05,14,15,38,14.80
2017,05,14,15,39,14.80
2017,05,14,15,40,14.80
2017,05,14,15,41,14.80
2017,05,14,15,42,14.90
2017,05,14,15,43,14.90
2017,05,14,15,44,14.90
2017,05,14,15,45,14.90
2017,05,14,15,46,14.80
2017,05,14,15,47,14.80
2017,05,14,15,48,14.80
2017,05,14,15,49,14.80
2017,05,14,15,50,14.80
2017,05,14,15,51,14.90
2017,05,14,15,52,15.00
2017,05,14,15,53,15.00
2017,05,14,15,54,14.90
2017,05,14,15,55,14.80
2017,05,14,15,56,14.80
2017,05,14,15,57,14.80
2017,05,14,15,58,14.80
2017,05,14,15,59,14.80
2017,05,14,16,00,14.80
2017,05,14,16,01,14.80
2017,05,14,16,02,14.80
2017,05,14,16,03,14.80
2017,05,14,16,04,14.80
2017,05,14,16,05,14.70
2017,05,14,16,06,14.70
2017,05,14,16,07,14.60
2017,05,14,16,08,14.50
2017,05,14,16,09,14.50
2017,05,14,16,10,14.40
2017,05,14,16,11,14.40
2017,05,14,16,12,14.30
2017,05,14,16,13,14.30
2017,05,14,16,14,14.30
2017,05,14,16,15,14.30
2017,05,14,16,16,14.30
2017,05,14,16,17,14.40
2017,05,14,16,18,14.40
2017,05,14,16,19,14.40
2017,05,14,16,20,14.50
2017,05,14,16,21,14.50
2017,05,14,16,22,14.50
2017,05,14,16,23,14.50
2017,05,14,16,24,14.60
2017,05,14,16,25,14.60
2017,05,14,16,26,14.70
2017,05,14,16,27,14.70
2017,05,14,16,28,14.70
2017,05,14,16,29,14.70
2017,05,14,16,30,14.70
2017,05,14,16,31,14.80
2017,05,14,16,32,14.80
2017,05,14,16,33,14.80
2017,05,14,16,34,14.80
2017,05,14,16,35,14.80
2017,05,14,16,36,14.80
2017,05,14,16,37,14.70
2017,05,14,16,38,14.70
2017,05,14,16,39,14.70
2017,05,14,16,40,14.60
2017,05,14,16,41,14.60
2017,05,14,16,42,14.60
2017,05,14,16,43,14.60
2017,05,14,16,44,14.60
2017,05,14,16,45,14.60
2017,05,14,16,46,14.60
2017,05,14,16,47,14.50
2017,05,14,16,48,14.50
2017,05,14,16,49,14.40
2017,05,14,16,50,14.40
2017,05,14,16,51,14.30
2017,05,14,16,52,14.30
2017,05,14,16,53,14.20
2017,05,14,16,54,14.10
2017,05,14,16,55,14.10
2017,05,14,16,56,14.00
2017,05,14,16,57,14.00
2017,05,14,16,58,14.00
2017,05,14,16,59,14.00
2017,05,14,17,00,14.00
2017,05,14,17,01,14.10
2017,05,14,17,02,14.10
2017,05,14,17,03,14.10
2017,05,14,17,04,14.10
2017,05,14,17,05,14.00
2017,05,14,17,06,14.00
2017,05,14,17,07,13.90
2017,05,14,17,08,13.80
2017,05,14,17,09,13.80
2017,05,14,17,10,13.80
2017,05,14,17,11,13.80
2017,05,14,17,12,13.80
2017,05,14,17,13,13.80
2017,05,14,17,14,13.90
2017,05,14,17,15,13.80
2017,05,14,17,16,13.80
2017,05,14,17,17,13.80
2017,05,14,17,18,13.80
2017,05,14,17,19,13.70
2017,05,14,17,20,13.60
2017,05,14,17,21,13.60
2017,05,14,17,22,13.50
2017,05,14,17,23,13.40
2017,05,14,17,24,13.40
2017,05,14,17,25,13.40
2017,05,14,17,26,13.40
2017,05,14,17,27,13.40
2017,05,14,17,28,13.40
2017,05,14,17,29,13.30
2017,05,14,17,30,13.30
2017,05,14,17,31,13.20
2017,05,14,17,32,13.20
2017,05,14,17,33,13.20
2017,05,14,17,34,13.30
2017,05,14,17,35,13.30
2017,05,14,17,36,13.30
2017,05,14,17,37,13.40
2017,05,14,17,38,13.50
2017,05,14,17,39,13.50
2017,05,14,17,40,13.50
2017,05,14,17,41,13.50
2017,05,14,17,42,13.50